,,,PA_Meas_PMT16A,,PR_Meas_QMR101_102,,RH_Meas_QMH101,,SR_Meas_QMS101,,TA_Meas_QMH101,,GenWind,,GenWind,
date,time,status,PA,status,PR,status,RH,status,SR,status,TA,status,DirAvg,status,SpdAvg,
2010-04-20, 00:00:04,VALID,1003.65,VALID,0,VALID,88.7849,VALID,0.100563,VALID,25.6097,VALID,20,VALID,0.885547,
2010-04-20, 00:01:04,VALID,1003.64,VALID,0,VALID,88.5789,VALID,0,VALID,25.5902,VALID,15,VALID,1.55586,
2010-04-20, 00:02:04,VALID,1003.63,VALID,0,VALID,88.6705,VALID,0.100563,VALID,25.5902,VALID,14,VALID,1.1957,
2010-04-20, 00:03:04,VALID,1003.6,VALID,0,VALID,88.6323,VALID,0.100563,VALID,25.6292,VALID,26,VALID,1.34922,
2010-04-20, 00:04:04,VALID,1003.59,VALID,0,VALID,88.4645,VALID,0,VALID,25.6292,VALID,360,VALID,1.18672,
2010-04-20, 00:05:04,VALID,1003.59,VALID,0,VALID,88.5255,VALID,0,VALID,25.6681,VALID,21,VALID,0.821094,
2010-04-20, 00:06:04,VALID,1003.56,VALID,0,VALID,88.4492,VALID,0.100563,VALID,25.6876,VALID,16,VALID,1.31367,
2010-04-20, 00:07:04,VALID,1003.55,VALID,0,VALID,88.4874,VALID,0.100563,VALID,25.7071,VALID,26,VALID,1.2125,
2010-04-20, 00:08:04,VALID,1003.55,VALID,0,VALID,88.4264,VALID,0,VALID,25.748,VALID,1,VALID,1.15352,
2010-04-20, 00:09:04,VALID,1003.52,VALID,0,VALID,88.6171,VALID,0,VALID,25.7285,VALID,15,VALID,1.36836,
2010-04-20, 00:10:04,VALID,1003.52,VALID,0,VALID,88.7773,VALID,0,VALID,25.7265,VALID,358,VALID,1.30508,
2010-04-20, 00:11:04,VALID,1003.49,VALID,0,VALID,88.8688,VALID,0,VALID,25.7285,VALID,360,VALID,1.51484,
2010-04-20, 00:12:04,VALID,1003.48,VALID,0,VALID,88.8993,VALID,0.100563,VALID,25.746,VALID,1,VALID,1.17695,
2010-04-20, 00:13:04,VALID,1003.48,VALID,0,VALID,88.9909,VALID,0.100563,VALID,25.746,VALID,13,VALID,1.35703,
2010-04-20, 00:14:04,VALID,1003.47,VALID,0,VALID,88.9985,VALID,0,VALID,25.746,VALID,357,VALID,2.19922,
2010-04-20, 00:15:04,VALID,1003.44,VALID,0,VALID,89.0748,VALID,0,VALID,25.7869,VALID,8,VALID,1.71133,
2010-04-20, 00:16:04,VALID,1003.47,VALID,0,VALID,89.1435,VALID,0,VALID,25.7869,VALID,357,VALID,1.40937,
2010-04-20, 00:17:04,VALID,1003.46,VALID,0,VALID,88.9375,VALID,0.100563,VALID,25.8044,VALID,45,VALID,0.971875,
2010-04-20, 00:18:04,VALID,1003.47,VALID,0,VALID,89.1206,VALID,0.100563,VALID,25.8453,VALID,26,VALID,1.03047,
2010-04-20, 00:19:04,VALID,1003.5,VALID,0,VALID,88.8993,VALID,0,VALID,25.8044,VALID,4,VALID,0.685156,
2010-04-20, 00:20:04,VALID,1003.5,VALID,0,VALID,88.9527,VALID,0.100563,VALID,25.8044,VALID,25,VALID,0.664453,
2010-04-20, 00:21:04,VALID,1003.51,VALID,0,VALID,88.9375,VALID,0.100563,VALID,25.785,VALID,30,VALID,0.744922,
2010-04-20, 00:22:04,VALID,1003.51,VALID,0,VALID,88.7391,VALID,0.100563,VALID,25.8259,VALID,40,VALID,0.944141,
2010-04-20, 00:23:04,VALID,1003.54,VALID,0,VALID,88.5408,VALID,0.100563,VALID,25.8648,VALID,24,VALID,1.03203,
2010-04-20, 00:24:04,VALID,1003.54,VALID,0,VALID,88.3958,VALID,0,VALID,25.8629,VALID,353,VALID,0.651953,
2010-04-20, 00:25:04,VALID,1003.55,VALID,0,VALID,88.1288,VALID,0,VALID,25.9038,VALID,18,VALID,0.815625,
2010-04-20, 00:26:04,VALID,1003.6,VALID,0,VALID,87.9991,VALID,0,VALID,25.9232,VALID,318,VALID,0.753125,
2010-04-20, 00:27:04,VALID,1003.61,VALID,0,VALID,87.9762,VALID,0,VALID,25.9018,VALID,347,VALID,0.311328,
2010-04-20, 00:28:04,VALID,1003.63,VALID,0,VALID,87.9534,VALID,0.100563,VALID,25.9427,VALID,339,VALID,0.157031,
2010-04-20, 00:29:04,VALID,1003.64,VALID,0,VALID,88.0907,VALID,0.100563,VALID,25.9408,VALID,195,VALID,0.232812,
2010-04-20, 00:30:04,VALID,1003.6,VALID,0,VALID,87.8847,VALID,0,VALID,25.9427,VALID,195,VALID,0.433594,
2010-04-20, 00:31:04,VALID,1003.6,VALID,0,VALID,87.3965,VALID,0,VALID,25.8823,VALID,207,VALID,0.185937,
2010-04-20, 00:32:04,VALID,1003.58,VALID,0,VALID,87.7016,VALID,0.100563,VALID,25.9038,VALID,207,VALID,0.452344,
2010-04-20, 00:33:04,VALID,1003.57,VALID,0,VALID,88.0144,VALID,0,VALID,25.8064,VALID,182,VALID,1.05664,
2010-04-20, 00:34:04,VALID,1003.57,VALID,0,VALID,88.0144,VALID,0.100563,VALID,25.7285,VALID,184,VALID,0.825,
2010-04-20, 00:35:04,VALID,1003.57,VALID,0,VALID,88.434,VALID,0,VALID,25.6486,VALID,200,VALID,0.70625,
2010-04-20, 00:36:04,VALID,1003.57,VALID,0,VALID,89.0061,VALID,0.100563,VALID,25.5902,VALID,200,VALID,0.461328,
2010-04-20, 00:37:04,VALID,1003.55,VALID,0,VALID,89.3571,VALID,0,VALID,25.5513,VALID,200,VALID,0.457812,
2010-04-20, 00:38:04,VALID,1003.54,VALID,0,VALID,90.2115,VALID,0.100563,VALID,25.5337,VALID,203,VALID,0.251172,
2010-04-20, 00:39:04,VALID,1003.57,VALID,0,VALID,90.9591,VALID,0,VALID,25.4734,VALID,203,VALID,0.0703125,
2010-04-20, 00:40:04,VALID,1003.55,VALID,0,VALID,91.5771,VALID,0.100563,VALID,25.4753,VALID,203,VALID,0.0105469,
2010-04-20, 00:41:04,VALID,1003.54,VALID,0,VALID,92.0501,VALID,0.100563,VALID,25.4344,VALID,204,VALID,0.202344,
2010-04-20, 00:42:04,VALID,1003.54,VALID,0,VALID,92.2942,VALID,0,VALID,25.4149,VALID,204,VALID,0.0246094,
2010-04-20, 00:43:04,VALID,1003.55,VALID,0,VALID,92.4239,VALID,0.100563,VALID,25.4169,VALID,214,VALID,0.353906,
2010-04-20, 00:44:04,VALID,1003.54,VALID,0,VALID,92.5154,VALID,0.100563,VALID,25.3974,VALID,235,VALID,0.459766,
2010-04-20, 00:45:04,VALID,1003.53,VALID,0,VALID,92.4163,VALID,0,VALID,25.337,VALID,296,VALID,0.991016,
2010-04-20, 00:46:04,VALID,1003.53,VALID,0,VALID,92.4086,VALID,0,VALID,25.2786,VALID,299,VALID,0.383203,
2010-04-20, 00:47:04,VALID,1003.5,VALID,0,VALID,92.607,VALID,0,VALID,25.2592,VALID,299,VALID,0.41875,
2010-04-20, 00:48:04,VALID,1003.48,VALID,0,VALID,92.7824,VALID,0,VALID,25.2397,VALID,297,VALID,0.20625,
2010-04-20, 00:49:04,VALID,1003.45,VALID,0,VALID,92.9274,VALID,0,VALID,25.2416,VALID,297,VALID,0.391406,
2010-04-20, 00:50:04,VALID,1003.41,VALID,0,VALID,93.0571,VALID,0,VALID,25.2416,VALID,297,VALID,0.183594,
2010-04-20, 00:51:04,VALID,1003.4,VALID,0,VALID,93.1868,VALID,0,VALID,25.1813,VALID,297,VALID,0.0882813,
2010-04-20, 00:52:04,VALID,1003.35,VALID,0,VALID,93.2936,VALID,0,VALID,25.2027,VALID,318,VALID,0.391016,
2010-04-20, 00:53:04,VALID,1003.34,VALID,0,VALID,93.3928,VALID,0,VALID,25.2027,VALID,318,VALID,0.3,
2010-04-20, 00:54:04,VALID,1003.28,VALID,0,VALID,93.4614,VALID,0.100563,VALID,25.1832,VALID,319,VALID,0.388672,
2010-04-20, 00:55:04,VALID,1003.24,VALID,0,VALID,93.5301,VALID,0,VALID,25.1618,VALID,320,VALID,0.434375,
2010-04-20, 00:56:04,VALID,1003.21,VALID,0,VALID,93.6216,VALID,0,VALID,25.1637,VALID,320,VALID,0.532812,
2010-04-20, 00:57:04,VALID,1003.16,VALID,0,VALID,93.675,VALID,0,VALID,25.1248,VALID,340,VALID,0.649609,
2010-04-20, 00:58:04,VALID,1003.14,VALID,0,VALID,93.8047,VALID,0.100563,VALID,25.1053,VALID,347,VALID,0.542188,
2010-04-20, 00:59:04,VALID,1003.13,VALID,0,VALID,93.9268,VALID,0,VALID,25.0644,VALID,347,VALID,0.546875,
2010-04-20, 01:00:04,VALID,1003.08,VALID,0,VALID,94.0488,VALID,0.100563,VALID,25.045,VALID,347,VALID,0.369922,
2010-04-20, 01:01:04,VALID,1003.03,VALID,0,VALID,94.1328,VALID,0,VALID,25.0255,VALID,347,VALID,0.421875,
2010-04-20, 01:02:04,VALID,1003.03,VALID,0,VALID,94.2396,VALID,0,VALID,25.0274,VALID,353,VALID,0.396875,
2010-04-20, 01:03:04,VALID,1003.01,VALID,0,VALID,94.3845,VALID,0,VALID,25.0469,VALID,353,VALID,0.503125,
2010-04-20, 01:04:04,VALID,1003.02,VALID,0,VALID,94.4379,VALID,0,VALID,25.0255,VALID,353,VALID,0.453906,
2010-04-20, 01:05:04,VALID,1003,VALID,0,VALID,94.4532,VALID,0.100563,VALID,25.045,VALID,353,VALID,0.0769531,
2010-04-20, 01:06:04,VALID,1003.05,VALID,0,VALID,94.4379,VALID,0.100563,VALID,25.0858,VALID,353,VALID,0,
2010-04-20, 01:07:04,VALID,1003.07,VALID,0,VALID,94.4455,VALID,0,VALID,25.0663,VALID,353,VALID,0,
2010-04-20, 01:08:04,VALID,1003.1,VALID,0,VALID,94.4303,VALID,0,VALID,25.0644,VALID,353,VALID,0.164844,
2010-04-20, 01:09:04,VALID,1003.1,VALID,0,VALID,94.4761,VALID,0,VALID,25.1053,VALID,305,VALID,0.556641,
2010-04-20, 01:10:04,VALID,1003.16,VALID,0,VALID,94.4379,VALID,0,VALID,25.0644,VALID,208,VALID,0.673828,
2010-04-20, 01:11:04,VALID,1003.16,VALID,0,VALID,94.4379,VALID,0.100563,VALID,25.0255,VALID,208,VALID,0.913281,
2010-04-20, 01:12:04,VALID,1003.18,VALID,0,VALID,94.4608,VALID,0,VALID,24.9866,VALID,207,VALID,1.05273,
2010-04-20, 01:13:04,VALID,1003.18,VALID,0,VALID,94.5447,VALID,0.100563,VALID,24.9457,VALID,207,VALID,0.759375,
2010-04-20, 01:14:04,VALID,1003.18,VALID,0,VALID,94.6363,VALID,0,VALID,24.9476,VALID,207,VALID,0.780859,
2010-04-20, 01:15:04,VALID,1003.17,VALID,0,VALID,94.7049,VALID,0.100563,VALID,24.9282,VALID,208,VALID,0.530078,
2010-04-20, 01:16:04,VALID,1003.15,VALID,0,VALID,94.7812,VALID,0.100563,VALID,24.9087,VALID,208,VALID,0.504687,
2010-04-20, 01:17:04,VALID,1003.16,VALID,0,VALID,94.8194,VALID,0.100563,VALID,24.93,VALID,207,VALID,0.319531,
2010-04-20, 01:18:04,VALID,1003.19,VALID,0,VALID,94.8728,VALID,0.100563,VALID,24.9087,VALID,208,VALID,0.571484,
2010-04-20, 01:19:04,VALID,1003.16,VALID,0,VALID,94.9185,VALID,0.100563,VALID,24.8892,VALID,208,VALID,0.545703,
2010-04-20, 01:20:04,VALID,1003.2,VALID,0,VALID,95.0024,VALID,0.100563,VALID,24.9087,VALID,208,VALID,0.128516,
2010-04-20, 01:21:04,VALID,1003.24,VALID,0,VALID,95.0177,VALID,0.100563,VALID,24.9087,VALID,208,VALID,0.251563,
2010-04-20, 01:22:04,VALID,1003.25,VALID,0,VALID,95.0482,VALID,0,VALID,24.8892,VALID,207,VALID,0.700781,
2010-04-20, 01:23:04,VALID,1003.3,VALID,0,VALID,95.094,VALID,0.100563,VALID,24.93,VALID,201,VALID,0.388672,
2010-04-20, 01:24:04,VALID,1003.36,VALID,0,VALID,95.1398,VALID,0.100563,VALID,24.9087,VALID,201,VALID,0.448047,
2010-04-20, 01:25:04,VALID,1003.4,VALID,0,VALID,95.1932,VALID,0,VALID,24.93,VALID,201,VALID,0.165625,
2010-04-20, 01:26:04,VALID,1003.42,VALID,0,VALID,95.2084,VALID,0,VALID,24.9319,VALID,201,VALID,0.483203,
2010-04-20, 01:27:04,VALID,1003.44,VALID,0,VALID,95.2161,VALID,0,VALID,24.9319,VALID,206,VALID,0.112891,
2010-04-20, 01:28:04,VALID,1003.46,VALID,0,VALID,95.2466,VALID,0,VALID,24.9514,VALID,206,VALID,0.307031,
2010-04-20, 01:29:04,VALID,1003.47,VALID,0,VALID,95.2618,VALID,0,VALID,24.93,VALID,206,VALID,0.413672,
2010-04-20, 01:30:04,VALID,1003.51,VALID,0,VALID,95.2542,VALID,0,VALID,24.9282,VALID,206,VALID,0.246875,
2010-04-20, 01:31:04,VALID,1003.51,VALID,0,VALID,95.2618,VALID,0,VALID,24.9282,VALID,206,VALID,0.269531,
2010-04-20, 01:32:04,VALID,1003.52,VALID,0,VALID,95.2618,VALID,0,VALID,24.9282,VALID,206,VALID,0,
2010-04-20, 01:33:04,VALID,1003.5,VALID,0,VALID,95.2618,VALID,0,VALID,24.9282,VALID,206,VALID,0.00429688,
2010-04-20, 01:34:04,VALID,1003.51,VALID,0,VALID,95.2771,VALID,0,VALID,24.9495,VALID,206,VALID,0,
2010-04-20, 01:35:04,VALID,1003.54,VALID,0,VALID,95.2771,VALID,0,VALID,24.9495,VALID,206,VALID,0,
2010-04-20, 01:36:04,VALID,1003.5,VALID,0,VALID,95.2771,VALID,0,VALID,24.9709,VALID,206,VALID,0,
2010-04-20, 01:37:04,VALID,1003.5,VALID,0,VALID,95.2847,VALID,0,VALID,24.9904,VALID,206,VALID,0.119531,
2010-04-20, 01:38:04,VALID,1003.49,VALID,0,VALID,95.3229,VALID,0,VALID,24.9885,VALID,206,VALID,0.2625,
2010-04-20, 01:39:04,VALID,1003.46,VALID,0,VALID,95.3,VALID,0,VALID,25.0079,VALID,206,VALID,0.180859,
2010-04-20, 01:40:04,VALID,1003.42,VALID,0,VALID,95.3076,VALID,0,VALID,25.0079,VALID,206,VALID,0.461719,
2010-04-20, 01:41:04,VALID,1003.37,VALID,0,VALID,95.3229,VALID,0,VALID,25.0079,VALID,206,VALID,0.319531,
2010-04-20, 01:42:04,VALID,1003.37,VALID,0,VALID,95.3305,VALID,0,VALID,25.0274,VALID,206,VALID,0.320703,
2010-04-20, 01:43:04,VALID,1003.32,VALID,0,VALID,95.3305,VALID,0,VALID,25.0079,VALID,206,VALID,0.209766,
2010-04-20, 01:44:04,VALID,1003.24,VALID,0,VALID,95.3152,VALID,0,VALID,25.0079,VALID,206,VALID,0.445313,
2010-04-20, 01:45:04,VALID,1003.26,VALID,0,VALID,95.3152,VALID,0,VALID,25.0079,VALID,206,VALID,0.576563,
2010-04-20, 01:46:04,VALID,1003.21,VALID,0,VALID,95.3229,VALID,0,VALID,24.9885,VALID,206,VALID,0.444922,
2010-04-20, 01:47:04,VALID,1003.18,VALID,0,VALID,95.3381,VALID,0,VALID,25.0293,VALID,206,VALID,0.454297,
2010-04-20, 01:48:04,VALID,1003.11,VALID,0,VALID,95.3457,VALID,0,VALID,25.0079,VALID,206,VALID,0.392578,
2010-04-20, 01:49:04,VALID,1003.07,VALID,0,VALID,95.3686,VALID,0,VALID,24.9671,VALID,206,VALID,0.461328,
2010-04-20, 01:50:04,VALID,1003.04,VALID,0,VALID,95.3991,VALID,0,VALID,24.9885,VALID,205,VALID,0.537891,
2010-04-20, 01:51:04,VALID,1003,VALID,0,VALID,95.4068,VALID,0,VALID,24.9885,VALID,29,VALID,0.576563,
2010-04-20, 01:52:04,VALID,1002.94,VALID,0,VALID,95.4297,VALID,0,VALID,25.0293,VALID,23,VALID,1.14805,
2010-04-20, 01:53:04,VALID,1002.94,VALID,0,VALID,95.4526,VALID,0,VALID,25.0469,VALID,37,VALID,0.541016,
2010-04-20, 01:54:04,VALID,1002.89,VALID,0,VALID,95.4144,VALID,0,VALID,25.0663,VALID,344,VALID,1.62891,
2010-04-20, 01:55:04,VALID,1002.88,VALID,0,VALID,95.3457,VALID,0,VALID,25.1053,VALID,30,VALID,0.322266,
2010-04-20, 01:56:04,VALID,1002.89,VALID,0,VALID,95.2161,VALID,0,VALID,25.1423,VALID,10,VALID,0.771094,
2010-04-20, 01:57:04,VALID,1002.87,VALID,0,VALID,94.9948,VALID,0,VALID,25.2027,VALID,22,VALID,0.389453,
2010-04-20, 01:58:04,VALID,1002.89,VALID,0,VALID,94.7812,VALID,0,VALID,25.2416,VALID,14,VALID,0.627344,
2010-04-20, 01:59:04,VALID,1002.87,VALID,0,VALID,94.4303,VALID,0,VALID,25.2611,VALID,35,VALID,0.542969,
2010-04-20, 02:00:04,VALID,1002.94,VALID,0,VALID,94.0183,VALID,0,VALID,25.3195,VALID,356,VALID,0.292969,
2010-04-20, 02:01:04,VALID,1002.92,VALID,0,VALID,93.4767,VALID,0,VALID,25.3584,VALID,24,VALID,1.29102,
2010-04-20, 02:02:04,VALID,1002.95,VALID,0,VALID,92.8053,VALID,0,VALID,25.4169,VALID,352,VALID,0.700391,
2010-04-20, 02:03:04,VALID,1002.99,VALID,0,VALID,92.2713,VALID,0,VALID,25.4753,VALID,359,VALID,0.173828,
2010-04-20, 02:04:04,VALID,1003.02,VALID,0,VALID,91.6763,VALID,0,VALID,25.4948,VALID,359,VALID,0.319531,
2010-04-20, 02:05:04,VALID,1003.04,VALID,0,VALID,91.3024,VALID,0,VALID,25.5337,VALID,355,VALID,0.176172,
2010-04-20, 02:06:04,VALID,1003.1,VALID,0,VALID,90.7989,VALID,0,VALID,25.5337,VALID,355,VALID,0.414453,
2010-04-20, 02:07:04,VALID,1003.14,VALID,0,VALID,90.5548,VALID,0,VALID,25.5532,VALID,355,VALID,0.347266,
2010-04-20, 02:08:04,VALID,1003.15,VALID,0,VALID,90.9363,VALID,0,VALID,25.5532,VALID,229,VALID,0.654688,
2010-04-20, 02:09:04,VALID,1003.16,VALID,0,VALID,91.7297,VALID,0,VALID,25.5551,VALID,219,VALID,0.79375,
2010-04-20, 02:10:04,VALID,1003.2,VALID,0,VALID,92.2179,VALID,0,VALID,25.4967,VALID,219,VALID,0.351563,
2010-04-20, 02:11:04,VALID,1003.2,VALID,0,VALID,92.6299,VALID,0,VALID,25.4558,VALID,219,VALID,0.211719,
2010-04-20, 02:12:04,VALID,1003.22,VALID,0,VALID,92.9579,VALID,0,VALID,25.4169,VALID,219,VALID,0.108203,
2010-04-20, 02:13:04,VALID,1003.21,VALID,0,VALID,93.141,VALID,0,VALID,25.4169,VALID,220,VALID,0,
2010-04-20, 02:14:04,VALID,1003.25,VALID,0,VALID,93.2402,VALID,0,VALID,25.3974,VALID,251,VALID,0.431641,
2010-04-20, 02:15:04,VALID,1003.26,VALID,0,VALID,93.2402,VALID,0,VALID,25.3974,VALID,289,VALID,0.0816406,
2010-04-20, 02:16:04,VALID,1003.26,VALID,0,VALID,93.3394,VALID,0,VALID,25.337,VALID,289,VALID,0.475781,
2010-04-20, 02:17:04,VALID,1003.27,VALID,0,VALID,93.4233,VALID,0,VALID,25.3584,VALID,289,VALID,0.179297,
2010-04-20, 02:18:04,VALID,1003.27,VALID,0,VALID,93.5148,VALID,0,VALID,25.339,VALID,289,VALID,0.171484,
2010-04-20, 02:19:04,VALID,1003.26,VALID,0,VALID,93.5911,VALID,0,VALID,25.3195,VALID,289,VALID,0,
2010-04-20, 02:20:04,VALID,1003.27,VALID,0,VALID,93.6903,VALID,0,VALID,25.2786,VALID,289,VALID,0,
2010-04-20, 02:21:04,VALID,1003.24,VALID,0,VALID,93.7742,VALID,0,VALID,25.3,VALID,289,VALID,0,
2010-04-20, 02:22:04,VALID,1003.25,VALID,0,VALID,93.8886,VALID,0,VALID,25.2786,VALID,289,VALID,0.0726563,
2010-04-20, 02:23:04,VALID,1003.25,VALID,0,VALID,93.9115,VALID,0,VALID,25.2806,VALID,289,VALID,0.171875,
2010-04-20, 02:24:04,VALID,1003.24,VALID,0,VALID,93.9954,VALID,0,VALID,25.2806,VALID,289,VALID,0.373828,
2010-04-20, 02:25:04,VALID,1003.22,VALID,0,VALID,94.0641,VALID,0,VALID,25.2786,VALID,320,VALID,0.305078,
2010-04-20, 02:26:04,VALID,1003.18,VALID,0,VALID,94.1022,VALID,0,VALID,25.3019,VALID,320,VALID,0.271875,
2010-04-20, 02:27:04,VALID,1003.12,VALID,0,VALID,94.0565,VALID,0,VALID,25.3019,VALID,332,VALID,0.471875,
2010-04-20, 02:28:04,VALID,1003.1,VALID,0,VALID,94.0488,VALID,0,VALID,25.2611,VALID,357,VALID,0.691406,
2010-04-20, 02:29:04,VALID,1003.06,VALID,0,VALID,94.0488,VALID,0,VALID,25.2611,VALID,356,VALID,0.479688,
2010-04-20, 02:30:04,VALID,1003.05,VALID,0,VALID,94.0565,VALID,0,VALID,25.2416,VALID,342,VALID,0.975391,
2010-04-20, 02:31:04,VALID,1002.98,VALID,0,VALID,94.0794,VALID,0,VALID,25.2435,VALID,344,VALID,0.564844,
2010-04-20, 02:32:04,VALID,1003,VALID,0,VALID,94.1251,VALID,0,VALID,25.2007,VALID,340,VALID,0.355859,
2010-04-20, 02:33:04,VALID,1002.99,VALID,0,VALID,94.148,VALID,0,VALID,25.2221,VALID,7,VALID,0.353125,
2010-04-20, 02:34:04,VALID,1002.97,VALID,0,VALID,94.1633,VALID,0,VALID,25.2221,VALID,6,VALID,0.212109,
2010-04-20, 02:35:04,VALID,1002.95,VALID,0,VALID,94.209,VALID,0,VALID,25.224,VALID,5,VALID,0.213672,
2010-04-20, 02:36:04,VALID,1002.95,VALID,0,VALID,94.2167,VALID,0,VALID,25.2027,VALID,277,VALID,0.764453,
2010-04-20, 02:37:04,VALID,1002.94,VALID,0,VALID,94.2701,VALID,0,VALID,25.2027,VALID,279,VALID,0.871484,
2010-04-20, 02:38:04,VALID,1002.96,VALID,0,VALID,94.2548,VALID,0,VALID,25.2027,VALID,307,VALID,0.343359,
2010-04-20, 02:39:04,VALID,1002.98,VALID,0,VALID,94.2777,VALID,0,VALID,25.2027,VALID,309,VALID,0.401953,
2010-04-20, 02:40:04,VALID,1002.99,VALID,0,VALID,94.2777,VALID,0,VALID,25.2221,VALID,308,VALID,0.352734,
2010-04-20, 02:41:04,VALID,1002.99,VALID,0,VALID,94.2701,VALID,0,VALID,25.2027,VALID,273,VALID,0.73125,
2010-04-20, 02:42:04,VALID,1003.01,VALID,0,VALID,94.2472,VALID,0,VALID,25.1813,VALID,292,VALID,0.894531,
2010-04-20, 02:43:04,VALID,1003.01,VALID,0,VALID,94.2319,VALID,0,VALID,25.2027,VALID,295,VALID,0.665625,
2010-04-20, 02:44:04,VALID,1003,VALID,0,VALID,94.209,VALID,0,VALID,25.1618,VALID,264,VALID,0.601563,
2010-04-20, 02:45:04,VALID,1003.01,VALID,0,VALID,94.1785,VALID,0,VALID,25.1618,VALID,298,VALID,1.15,
2010-04-20, 02:46:04,VALID,1002.99,VALID,0,VALID,94.148,VALID,0,VALID,25.1423,VALID,280,VALID,0.54375,
2010-04-20, 02:47:04,VALID,1002.96,VALID,0,VALID,94.1633,VALID,0,VALID,25.1442,VALID,308,VALID,0.878516,
2010-04-20, 02:48:04,VALID,1002.96,VALID,0,VALID,94.1862,VALID,0,VALID,25.1248,VALID,286,VALID,0.685938,
2010-04-20, 02:49:04,VALID,1002.96,VALID,0,VALID,94.209,VALID,0,VALID,25.0839,VALID,290,VALID,0.48125,
2010-04-20, 02:50:04,VALID,1002.93,VALID,0,VALID,94.2472,VALID,0,VALID,25.0858,VALID,297,VALID,0.575391,
2010-04-20, 02:51:04,VALID,1002.94,VALID,0,VALID,94.2777,VALID,0,VALID,25.0663,VALID,291,VALID,1.09258,
2010-04-20, 02:52:04,VALID,1002.94,VALID,0,VALID,94.293,VALID,0,VALID,25.0469,VALID,299,VALID,0.713672,
2010-04-20, 02:53:04,VALID,1002.95,VALID,0,VALID,94.3464,VALID,0,VALID,25.0469,VALID,288,VALID,0.855078,
2010-04-20, 02:54:04,VALID,1002.95,VALID,0,VALID,94.3921,VALID,0,VALID,25.0274,VALID,298,VALID,1.18281,
2010-04-20, 02:55:04,VALID,1002.97,VALID,0,VALID,94.4684,VALID,0,VALID,25.0079,VALID,287,VALID,1.33867,
2010-04-20, 02:56:04,VALID,1002.99,VALID,0,VALID,94.5447,VALID,0,VALID,24.9885,VALID,287,VALID,0.891016,
2010-04-20, 02:57:04,VALID,1003.05,VALID,0,VALID,94.5981,VALID,0,VALID,24.969,VALID,285,VALID,0.757031,
2010-04-20, 02:58:04,VALID,1003.06,VALID,0,VALID,94.6439,VALID,0,VALID,24.969,VALID,285,VALID,0.0140625,
2010-04-20, 02:59:04,VALID,1003.07,VALID,0,VALID,94.7049,VALID,0,VALID,24.9476,VALID,285,VALID,0.328516,
2010-04-20, 03:00:04,VALID,1003.1,VALID,0,VALID,94.7354,VALID,0,VALID,24.93,VALID,284,VALID,0.340234,
2010-04-20, 03:01:04,VALID,1003.13,VALID,0,VALID,94.7507,VALID,0,VALID,24.93,VALID,295,VALID,0.9875,
2010-04-20, 03:02:04,VALID,1003.13,VALID,0,VALID,94.7888,VALID,0,VALID,24.9106,VALID,274,VALID,0.877344,
2010-04-20, 03:03:04,VALID,1003.15,VALID,0,VALID,94.8575,VALID,0,VALID,24.9106,VALID,284,VALID,0.825391,
2010-04-20, 03:04:04,VALID,1003.12,VALID,0,VALID,94.8956,VALID,0,VALID,24.9106,VALID,284,VALID,0.335547,
2010-04-20, 03:05:04,VALID,1003.15,VALID,0,VALID,94.9338,VALID,0,VALID,24.9106,VALID,285,VALID,0.314453,
2010-04-20, 03:06:04,VALID,1003.14,VALID,0,VALID,94.9719,VALID,0,VALID,24.93,VALID,285,VALID,0.065625,
2010-04-20, 03:07:04,VALID,1003.15,VALID,0,VALID,94.9872,VALID,0,VALID,24.9106,VALID,293,VALID,0.575391,
2010-04-20, 03:08:04,VALID,1003.16,VALID,0,VALID,94.9872,VALID,0,VALID,24.9106,VALID,293,VALID,0.250781,
2010-04-20, 03:09:04,VALID,1003.15,VALID,0,VALID,95.0177,VALID,0,VALID,24.9125,VALID,322,VALID,0.557813,
2010-04-20, 03:10:04,VALID,1003.13,VALID,0,VALID,95.0406,VALID,0,VALID,24.9106,VALID,322,VALID,0.491797,
2010-04-20, 03:11:04,VALID,1003.15,VALID,0,VALID,95.0635,VALID,0,VALID,24.9106,VALID,322,VALID,0.446875,
2010-04-20, 03:12:04,VALID,1003.14,VALID,0,VALID,95.0787,VALID,0,VALID,24.8911,VALID,336,VALID,0.635547,
2010-04-20, 03:13:04,VALID,1003.18,VALID,0,VALID,95.094,VALID,0,VALID,24.8716,VALID,347,VALID,0.621875,
2010-04-20, 03:14:04,VALID,1003.18,VALID,0,VALID,95.1169,VALID,0,VALID,24.8716,VALID,353,VALID,0.587109,
2010-04-20, 03:15:04,VALID,1003.16,VALID,0,VALID,95.155,VALID,0,VALID,24.8503,VALID,357,VALID,0.511719,
2010-04-20, 03:16:04,VALID,1003.18,VALID,0,VALID,95.1855,VALID,0,VALID,24.8716,VALID,357,VALID,0.246875,
2010-04-20, 03:17:04,VALID,1003.21,VALID,0,VALID,95.2084,VALID,0,VALID,24.8716,VALID,355,VALID,0.334766,
2010-04-20, 03:18:04,VALID,1003.23,VALID,0,VALID,95.2161,VALID,0,VALID,24.8716,VALID,355,VALID,0.18125,
2010-04-20, 03:19:04,VALID,1003.25,VALID,0,VALID,95.2313,VALID,0,VALID,24.8716,VALID,336,VALID,0.164844,
2010-04-20, 03:20:04,VALID,1003.28,VALID,0,VALID,95.2466,VALID,0,VALID,24.893,VALID,336,VALID,0.00546875,
2010-04-20, 03:21:04,VALID,1003.3,VALID,0,VALID,95.2618,VALID,0,VALID,24.8911,VALID,336,VALID,0.0414063,
2010-04-20, 03:22:04,VALID,1003.32,VALID,0,VALID,95.3,VALID,0,VALID,24.8716,VALID,336,VALID,0.471484,
2010-04-20, 03:23:04,VALID,1003.35,VALID,0,VALID,95.2847,VALID,0,VALID,24.893,VALID,336,VALID,0.260938,
2010-04-20, 03:24:04,VALID,1003.33,VALID,0,VALID,95.3,VALID,0,VALID,24.8716,VALID,336,VALID,0.189844,
2010-04-20, 03:25:04,VALID,1003.33,VALID,0,VALID,95.2847,VALID,0,VALID,24.8716,VALID,336,VALID,0.144141,
2010-04-20, 03:26:04,VALID,1003.37,VALID,0,VALID,95.2847,VALID,0,VALID,24.8716,VALID,336,VALID,0.0753906,
2010-04-20, 03:27:04,VALID,1003.37,VALID,0,VALID,95.3,VALID,0,VALID,24.8911,VALID,336,VALID,0,
2010-04-20, 03:28:04,VALID,1003.41,VALID,0,VALID,95.3229,VALID,0,VALID,24.8911,VALID,336,VALID,0,
2010-04-20, 03:29:04,VALID,1003.42,VALID,0,VALID,95.3534,VALID,0,VALID,24.8911,VALID,336,VALID,0,
2010-04-20, 03:30:04,VALID,1003.45,VALID,0,VALID,95.3534,VALID,0,VALID,24.9125,VALID,336,VALID,0.235938,
2010-04-20, 03:31:04,VALID,1003.42,VALID,0,VALID,95.3839,VALID,0,VALID,24.9106,VALID,336,VALID,0.453906,
2010-04-20, 03:32:04,VALID,1003.45,VALID,0,VALID,95.3763,VALID,0,VALID,24.8892,VALID,354,VALID,0.604297,
2010-04-20, 03:33:04,VALID,1003.44,VALID,0,VALID,95.3763,VALID,0,VALID,24.9106,VALID,355,VALID,0.317578,
2010-04-20, 03:34:04,VALID,1003.5,VALID,0,VALID,95.3686,VALID,0,VALID,24.93,VALID,355,VALID,0.248828,
2010-04-20, 03:35:04,VALID,1003.54,VALID,0,VALID,95.3915,VALID,0,VALID,24.93,VALID,230,VALID,1.10039,
2010-04-20, 03:36:04,VALID,1003.54,VALID,0,VALID,95.3839,VALID,0,VALID,24.93,VALID,228,VALID,0.463672,
2010-04-20, 03:37:04,VALID,1003.53,VALID,0,VALID,95.3686,VALID,0,VALID,24.9709,VALID,228,VALID,0.101172,
2010-04-20, 03:38:04,VALID,1003.53,VALID,0,VALID,95.3229,VALID,0,VALID,24.9904,VALID,347,VALID,1.12266,
2010-04-20, 03:39:04,VALID,1003.56,VALID,0,VALID,95.2389,VALID,0,VALID,25.0274,VALID,278,VALID,0.451562,
2010-04-20, 03:40:04,VALID,1003.55,VALID,0,VALID,95.1093,VALID,0,VALID,25.0469,VALID,234,VALID,0.28125,
2010-04-20, 03:41:04,VALID,1003.55,VALID,0,VALID,94.949,VALID,0,VALID,25.0858,VALID,234,VALID,0,
2010-04-20, 03:42:04,VALID,1003.54,VALID,0,VALID,94.8194,VALID,0,VALID,25.1053,VALID,234,VALID,0,
2010-04-20, 03:43:04,VALID,1003.51,VALID,0,VALID,94.7354,VALID,0,VALID,25.1656,VALID,215,VALID,0.54375,